Probability
0 0 0 0 0 0 0 0 0 0 0 0 6 16 32 42 55 77 90 94 97 97 97 97 97 97 97 94 97 97 97 97 94 90 87 87 84 74 74 71 61 65 65 52
0 0 0 0 0 0 0 0 0 0 0 6 16 19 32 42 55 77 87 97 94 94 94 97 97 97 97 97 97 97 97 97 94 90 87 87 84 74 77 71 61 58 55 45
0 0 0 0 0 0 0 0 0 0 0 13 16 29 48 52 61 71 81 87 94 94 94 94 94 94 94 94 90 90 87 84 81 81 81 84 71 74 74 65 61 61 55 52
0 0 0 0 0 0 0 0 0 10 16 23 39 39 55 68 68 81 84 90 90 94 94 94 94 90 90 90 90 90 84 81 81 81 81 81 74 65 55 58 55 55 45 35
0 0 0 0 0 0 0 0 3 10 16 23 35 45 52 65 68 71 81 87 87 87 87 90 90 90 90 90 90 84 81 81 81 81 77 74 71 68 55 48 48 35 35 35
0 0 0 0 0 10 0 0 10 19 23 39 42 16 48 74 84 81 81 77 84 84 81 87 87 90 90 90 90 84 81 81 74 74 74 68 65 61 48 39 39 35 32 32
0 0 0 3 6 10 3 13 32 42 55 55 58 65 77 74 77 77 81 81 81 81 81 81 81 84 84 84 81 68 71 71 68 71 65 61 58 55 45 42 39 39 39 29
0 0 0 6 13 19 35 48 35 45 58 65 77 77 74 74 71 81 74 77 77 77 74 81 81 77 77 74 71 61 61 58 58 55 52 52 45 45 39 45 42 42 35 26
3 0 13 16 39 45 48 61 65 71 58 61 71 77 77 77 68 74 74 74 71 71 71 68 71 74 71 68 65 61 58 52 48 52 45 45 45 45 42 39 39 32 29 23
19 19 26 23 26 35 42 58 58 68 65 61 61 68 71 71 68 68 68 71 65 68 61 65 65 68 65 65 65 58 58 45 45 39 42 35 42 32 32 23 23 26 26 19
19 23 26 32 32 32 42 45 52 55 61 55 55 52 55 58 61 61 55 55 55 58 58 52 52 58 55 61 65 55 48 48 32 32 32 23 23 19 23 19 13 16 19 13
23 26 26 32 26 32 35 32 42 42 39 45 45 39 42 52 58 58 55 52 52 52 48 39 35 39 39 55 55 48 42 39 29 19 23 16 13 6 0 0 0 0 0 0
23 23 26 23 23 35 32 29 29 32 32 39 32 35 39 45 45 52 48 48 45 45 35 35 35 35 32 32 42 39 32 26 23 19 16 13 10 10 6 0 0 0 0 0
19 26 23 23 32 19 19 16 23 26 23 26 29 26 26 32 29 45 42 39 39 32 35 35 35 32 29 23 29 32 32 16 19 23 19 16 13 6 6 0 0 0 0 0
13 16 19 16 19 19 19 16 16 19 23 26 26 26 26 26 29 32 32 29 26 29 23 26 19 13 6 13 13 19 19 19 16 19 19 10 10 10 10 6 0 0 0 0
6 10 6 10 16 13 13 13 16 16 16 23 23 26 26 26 32 19 19 16 19 19 19 19 16 13 10 10 10 6 13 10 10 10 3 3 3 3 3 3 3 3 0 0
6 3 6 6 3 3 6 10 13 13 16 16 19 23 23 26 19 19 19 16 13 13 10 13 10 6 10 10 10 10 3 3 3 3 3 3 3 3 3 3 0 0 0 0
0 0 3 3 3 6 6 6 6 6 6 6 13 19 23 23 19 19 16 13 13 10 6 6 6 3 0 0 0 0 0 3 3 3 3 3 3 3 3 0 0 0 0 0
0 0 0 3 6 6 3 3 6 6 6 6 13 10 13 19 19 16 13 10 10 10 3 3 3 3 0 0 0 3 3 3 3 3 6 3 0 0 0 0 0 0 0 0
0 0 0 0 0 0 3 6 3 6 10 13 13 13 13 13 6 13 19 10 10 6 6 6 3 3 3 3 0 3 3 3 3 0 0 0 0 0 0 0 0 0 0 0
0 0 0 0 0 0 0 3 3 6 10 10 10 13 10 10 13 6 16 10 3 6 3 3 3 6 3 0 0 0 0 0 0 0 0 0 0 0 0 0 0 0 0 0
0 0 0 0 0 0 3 6 6 13 13 10 10 6 6 13 16 10 10 3 3 0 0 6 6 3 3 0 0 0 0 0 0 0 0 0 0 0 0 0 0 0 0 0
0 0 0 0 0 3 6 10 10 10 10 10 6 6 6 10 13 10 3 3 0 0 0 6 3 0 0 0 0 0 0 0 0 0 0 0 0 0 0 0 0 0 0 0
0 0 0 0 3 6 10 6 10 13 6 10 10 10 10 10 10 3 3 0 0 0 3 3 0 0 0 0 0 0 0 0 0 0 0 0 0 0 0 0 0 0 0 0
0 0 0 0 3 3 3 10 10 10 6 6 3 6 0 3 0 0 0 0 0 3 3 3 0 0 0 0 3 0 0 0 0 0 0 0 0 0 0 0 0 0 0 0
0 0 0 0 3 6 0 3 0 6 6 0 0 0 0 0 0 0 0 0 0 0 3 3 3 0 0 3 3 3 0 0 0 0 0 0 0 0 0 0 0 0 0 0
0 0 0 0 0 0 0 3 3 3 0 0 0 0 0 0 0 0 0 0 0 0 3 3 3 3 3 3 3 0 0 0 0 0 0 0 0 0 0 0 0 0 0 0
Height
5876 5880 5883 5886 5889 5893 5896 5900 5903 5906 5907 5909 5910 5911 5912 5913 5913 5913 5914 5913 5913 5912 5912 5911 5909 5908 5907 5905 5903 5902 5900 5898 5896 5893 5891 5889 5886 5884 5882 5879 5877 5874 5872 5870
5867 5871 5874 5878 5882 5885 5888 5892 5895 5898 5900 5902 5903 5905 5906 5907 5908 5908 5909 5909 5908 5908 5907 5907 5906 5905 5903 5902 5900 5899 5897 5895 5893 5891 5888 5886 5884 5881 5878 5876 5873 5871 5869 5866
5859 5862 5865 5869 5874 5878 5881 5884 5888 5891 5894 5895 5897 5898 5900 5901 5902 5903 5903 5903 5903 5903 5903 5902 5901 5900 5899 5898 5896 5895 5893 5891 5889 5887 5885 5882 5880 5877 5875 5872 5869 5867 5864 5862
5850 5853 5856 5864 5866 5870 5873 5876 5880 5883 5885 5888 5890 5891 5893 5894 5896 5897 5897 5898 5897 5897 5897 5897 5896 5895 5894 5893 5892 5890 5889 5887 5885 5882 5880 5877 5875 5872 5870 5867 5864 5862 5859 5857
5840 5844 5848 5853 5857 5861 5865 5868 5871 5874 5877 5880 5882 5884 5886 5887 5888 5890 5891 5891 5891 5891 5891 5891 5890 5890 5889 5888 5886 5885 5883 5881 5879 5877 5874 5872 5870 5867 5864 5862 5859 5857 5854 5851
5830 5835 5840 5845 5849 5853 5857 5858 5863 5866 5869 5872 5874 5877 5878 5879 5880 5882 5883 5884 5884 5884 5884 5884 5884 5883 5883 5881 5880 5879 5877 5875 5873 5870 5868 5866 5864 5861 5858 5855 5853 5850 5848 5845
5820 5825 5831 5834 5839 5844 5849 5850 5854 5857 5860 5863 5865 5868 5870 5871 5872 5874 5875 5876 5876 5877 5877 5877 5877 5876 5875 5874 5873 5872 5870 5868 5866 5863 5861 5859 5856 5854 5851 5849 5846 5843 5841 5838
5811 5817 5822 5824 5829 5835 5838 5841 5845 5848 5851 5854 5856 5858 5860 5862 5864 5865 5866 5867 5868 5868 5869 5869 5869 5868 5867 5866 5864 5863 5862 5860 5858 5856 5853 5850 5848 5846 5843 5841 5838 5835 5833 5830
5800 5806 5809 5814 5819 5824 5828 5832 5835 5839 5842 5844 5847 5849 5851 5853 5854 5856 5857 5858 5859 5859 5860 5860 5860 5859 5858 5857 5856 5855 5853 5852 5849 5847 5845 5842 5839 5837 5835 5832 5830 5827 5824 5822
5789 5794 5799 5804 5808 5813 5817 5821 5825 5828 5832 5834 5837 5839 5841 5843 5844 5846 5847 5848 5849 5850 5850 5850 5850 5850 5849 5848 5847 5846 5844 5842 5840 5838 5836 5833 5831 5828 5826 5824 5821 5818 5815 5813
5778 5784 5789 5793 5798 5803 5807 5811 5815 5818 5821 5824 5826 5828 5831 5832 5834 5835 5837 5838 5839 5839 5839 5839 5839 5839 5839 5838 5837 5836 5834 5832 5830 5828 5826 5824 5821 5819 5816 5814 5812 5809 5807 5804
5768 5774 5779 5783 5788 5792 5797 5800 5804 5807 5810 5813 5815 5818 5820 5821 5823 5824 5826 5827 5827 5828 5828 5828 5828 5828 5827 5827 5826 5825 5824 5822 5820 5817 5815 5813 5811 5809 5806 5805 5802 5800 5797 5795
5758 5763 5768 5773 5777 5781 5786 5790 5793 5796 5799 5802 5804 5806 5808 5810 5812 5813 5814 5815 5815 5816 5816 5816 5816 5816 5816 5815 5814 5813 5812 5811 5809 5807 5805 5803 5801 5799 5796 5795 5792 5790 5788 5785
5748 5753 5758 5762 5766 5770 5774 5778 5781 5784 5788 5790 5793 5795 5797 5799 5801 5802 5803 5804 5804 5804 5804 5804 5804 5804 5804 5804 5803 5802 5801 5799 5798 5796 5794 5792 5790 5788 5786 5784 5782 5780 5778 5775
5739 5743 5748 5752 5756 5760 5763 5767 5770 5774 5777 5779 5782 5784 5786 5787 5789 5790 5791 5792 5793 5793 5793 5793 5793 5793 5792 5792 5791 5790 5789 5788 5786 5785 5783 5781 5779 5777 5775 5773 5771 5769 5767 5765
5729 5734 5738 5742 5746 5750 5753 5757 5760 5763 5766 5768 5771 5773 5775 5776 5777 5778 5779 5780 5781 5781 5781 5781 5781 5781 5781 5780 5780 5779 5778 5776 5775 5773 5771 5769 5768 5766 5764 5762 5760 5758 5756 5754
5721 5725 5728 5732 5736 5739 5742 5746 5749 5752 5755 5757 5760 5762 5764 5765 5766 5767 5768 5768 5769 5769 5770 5770 5770 5769 5769 5768 5768 5767 5765 5764 5762 5761 5759 5758 5756 5755 5753 5751 5749 5747 5745 5742
5713 5716 5719 5722 5726 5729 5732 5735 5738 5741 5744 5746 5749 5751 5753 5754 5755 5756 5757 5757 5758 5758 5758 5758 5758 5758 5757 5757 5756 5755 5754 5752 5751 5749 5748 5747 5745 5743 5741 5739 5737 5735 5733 5730
5705 5708 5711 5713 5716 5719 5722 5725 5728 5731 5733 5736 5738 5740 5742 5744 5745 5746 5746 5747 5747 5747 5747 5747 5747 5746 5746 5745 5745 5744 5743 5741 5740 5738 5737 5735 5734 5732 5730 5727 5725 5723 5720 5718
5699 5701 5703 5706 5708 5711 5714 5717 5719 5722 5724 5726 5728 5730 5732 5733 5734 5735 5736 5736 5736 5736 5736 5736 5736 5736 5735 5735 5734 5733 5731 5730 5729 5728 5726 5724 5722 5721 5718 5716 5714 5712 5709 5706
5693 5694 5697 5699 5701 5704 5706 5708 5711 5713 5715 5717 5718 5720 5722 5723 5724 5725 5725 5726 5726 5726 5726 5726 5726 5725 5725 5724 5723 5722 5721 5720 5718 5717 5715 5713 5711 5709 5707 5705 5703 5700 5698 5695
5687 5689 5690 5692 5694 5696 5698 5700 5702 5704 5706 5707 5709 5711 5712 5713 5714 5715 5715 5716 5716 5716 5716 5715 5715 5715 5714 5714 5713 5712 5711 5709 5708 5707 5705 5703 5701 5699 5696 5694 5692 5689 5687 5684
5681 5683 5685 5686 5688 5689 5691 5693 5694 5696 5698 5699 5700 5702 5703 5704 5705 5705 5706 5706 5706 5706 5706 5706 5706 5705 5705 5704 5703 5702 5701 5699 5698 5696 5695 5693 5691 5689 5686 5684 5681 5679 5676 5674
5676 5677 5679 5680 5681 5683 5684 5685 5687 5688 5690 5691 5692 5693 5694 5695 5696 5696 5697 5697 5697 5697 5697 5697 5696 5696 5695 5694 5693 5692 5691 5690 5688 5687 5684 5683 5681 5679 5676 5674 5671 5668 5666 5663
5671 5672 5673 5674 5675 5676 5677 5678 5680 5681 5682 5683 5685 5686 5687 5687 5688 5688 5689 5689 5689 5689 5689 5688 5687 5687 5686 5685 5684 5683 5682 5680 5679 5677 5675 5673 5671 5669 5666 5664 5661 5658 5656 5653
5667 5667 5668 5668 5669 5670 5671 5672 5673 5674 5675 5677 5678 5679 5679 5680 5681 5681 5681 5681 5681 5681 5681 5680 5679 5678 5677 5676 5675 5674 5673 5671 5669 5668 5665 5663 5661 5659 5656 5654 5651 5649 5646 5643
5663 5663 5664 5664 5665 5665 5666 5667 5668 5669 5670 5671 5672 5673 5673 5674 5675 5675 5675 5675 5674 5674 5673 5672 5671 5671 5670 5669 5667 5666 5664 5662 5661 5659 5657 5655 5652 5650 5647 5645 5642 5639 5636 5633
Wind_Speed
36 34 33 33 32 31 31 29 27 25 23 21 20 19 18 17 16 16 16 16 16 15 15 15 15 15 14 14 14 15 15 15 16 16 16 16 17 17 17 17 17 17 17 17
38 36 35 35 34 34 33 32 30 28 26 23 22 21 20 19 18 18 18 18 18 17 17 17 16 16 15 15 16 16 17 18 18 18 18 18 19 19 19 19 19 18 18 19
39 38 38 38 36 35 34 33 32 30 28 26 25 23 22 21 20 19 19 20 20 20 19 18 19 18 18 18 18 18 19 19 19 20 20 20 20 20 20 20 20 20 20 20
39 39 40 38 36 36 35 34 33 32 31 28 27 25 24 23 22 22 22 22 22 22 21 21 21 21 20 20 20 20 21 21 22 22 22 22 22 23 23 22 22 22 21 21
40 39 40 40 39 36 35 35 33 33 32 30 28 27 27 25 25 24 24 24 24 24 24 24 24 24 23 23 23 23 23 24 24 25 25 25 25 25 25 25 25 24 24 23
42 40 37 39 38 35 35 36 35 33 33 31 30 28 29 28 27 27 26 26 26 26 26 27 27 27 26 26 26 26 26 27 27 28 27 27 28 27 27 27 27 27 26 26
42 41 38 40 38 36 36 37 35 34 33 33 32 31 31 30 29 29 28 28 28 28 28 29 30 30 30 29 30 30 30 30 30 29 29 30 30 30 30 30 30 30 29 28
42 41 41 43 40 39 38 38 37 35 34 33 33 33 32 32 31 31 30 30 30 30 30 31 32 33 33 33 33 33 33 34 34 33 33 33 34 33 33 32 31 31 30 29
44 43 44 42 41 40 40 39 38 37 37 36 35 35 35 34 34 33 32 32 32 32 32 33 34 35 35 34 36 36 36 37 37 37 37 37 36 35 34 33 33 32 31 30
44 44 44 43 41 40 40 39 39 38 38 37 37 37 37 36 35 35 34 34 34 34 35 36 36 37 37 38 39 39 40 40 39 38 39 39 37 35 34 34 34 33 33 32
44 44 43 43 42 41 40 39 39 39 39 38 38 38 37 37 37 36 36 36 36 36 37 37 38 39 40 40 41 41 41 41 41 41 40 40 39 37 36 35 35 35 34 33
42 43 43 42 42 42 41 41 40 40 39 39 39 39 38 38 38 38 38 38 39 39 39 39 40 41 41 41 42 42 42 42 42 41 41 40 39 39 38 37 36 35 34 33
41 42 42 42 42 42 43 42 42 41 40 39 39 40 40 40 39 39 39 40 39 39 40 40 41 41 42 42 41 42 42 42 41 41 40 39 39 39 39 38 37 36 35 34
40 41 42 41 42 42 42 42 41 41 41 40 40 40 40 40 40 40 40 40 40 39 39 39 39 40 41 41 41 41 41 42 42 41 39 39 39 39 38 37 36 35 35 35
39 40 41 41 41 41 41 40 40 40 40 40 41 41 41 41 41 41 40 40 39 38 39 39 40 40 41 41 41 41 41 42 41 40 39 39 39 38 37 37 36 36 36 36
37 39 40 41 41 40 40 40 40 39 40 40 40 40 40 40 40 40 40 40 40 39 39 39 40 39 39 40 40 40 40 41 40 40 41 40 39 39 38 38 37 38 38 38
34 36 38 39 39 39 39 39 40 40 39 39 38 38 38 38 38 38 37 38 39 40 40 40 40 41 41 41 40 40 41 41 41 41 41 39 39 39 39 39 39 39 39 39
31 32 34 35 35 36 37 38 37 37 37 37 37 36 36 36 37 37 37 37 37 37 38 38 39 40 40 40 40 40 40 40 39 39 39 39 39 39 39 39 39 39 40 40
27 28 29 31 32 32 32 33 34 35 35 34 34 35 35 35 35 36 36 37 37 36 37 37 37 37 37 37 37 37 37 37 36 36 37 37 38 38 38 38 38 39 39 39
23 24 26 28 29 30 30 30 30 31 31 32 32 33 33 34 34 34 35 35 36 36 35 35 34 34 34 35 35 35 35 35 35 35 36 36 37 37 37 37 37 37 37 37
21 22 23 24 26 27 28 28 28 29 29 30 30 30 31 31 33 33 33 33 33 33 33 33 33 33 33 34 34 34 34 34 34 34 35 35 35 35 35 35 35 35 36 37
20 20 21 22 23 24 25 26 26 27 27 28 28 28 29 29 30 31 31 31 32 31 32 32 32 33 32 32 32 32 33 33 33 34 34 34 34 33 33 34 34 35 35 36
19 19 20 20 21 22 23 24 25 26 26 27 27 27 27 27 28 28 29 29 29 30 30 30 31 31 31 31 31 31 32 32 32 33 33 33 32 32 33 33 34 34 34 34
17 17 18 19 20 21 21 22 23 24 24 25 25 25 25 25 26 26 26 27 27 28 28 29 29 30 30 29 30 30 31 31 31 31 31 31 31 31 32 32 33 33 33 33
15 16 16 17 18 18 19 20 21 21 22 22 23 23 23 24 24 24 25 25 25 26 26 27 27 27 28 28 28 28 28 29 29 29 29 29 30 30 31 31 31 32 33 33
12 13 14 15 15 16 17 17 18 19 19 20 20 21 21 21 22 22 22 22 23 23 24 23 24 24 24 25 25 26 27 28 28 28 28 28 29 29 30 30 31 32 32 33
10 10 11 11 12 12 13 14 15 15 16 16 17 17 18 18 19 19 20 21 21 21 22 22 22 23 23 24 24 25 26 26 26 26 27 27 28 29 29 30 31 31 32 32
Wind_Direction
229 231 235 237 237 238 239 239 242 247 247 248 249 251 252 253 256 260 264 271 276 281 285 290 296 299 303 307 312 316 318 321 322 323 323 323 324 324 324 324 321 317 314 311
232 233 235 236 237 239 240 241 243 244 246 248 248 249 252 253 256 259 262 266 271 276 281 285 290 295 298 301 305 307 309 313 317 317 318 319 319 320 319 319 318 314 311 310
233 235 236 236 236 238 240 242 244 246 248 249 248 250 252 254 254 257 260 263 269 272 276 281 285 290 292 297 299 300 303 307 309 313 314 315 315 314 314 315 314 312 309 307
233 235 235 237 238 238 241 242 243 245 247 249 250 251 252 253 254 257 259 261 264 267 269 274 279 283 287 292 296 297 298 301 304 307 309 309 309 307 307 308 309 309 306 305
232 235 237 237 237 238 241 243 243 244 246 248 249 251 253 253 255 257 260 261 262 264 266 271 275 279 283 287 289 292 295 297 299 301 305 306 306 303 302 303 304 304 303 301
232 233 237 240 238 238 241 242 241 243 245 247 249 249 252 254 256 258 259 259 260 263 264 267 271 276 279 282 285 288 291 294 297 299 301 303 305 304 304 301 300 299 299 298
231 233 235 238 238 237 239 241 242 242 245 247 248 249 252 254 256 258 259 259 260 261 262 264 268 272 275 278 281 283 287 291 293 295 297 299 301 301 302 301 299 297 295 294
231 232 235 237 237 238 240 242 243 244 245 248 249 251 252 255 257 259 260 260 260 260 261 263 266 269 270 274 278 282 285 288 290 293 294 297 297 298 298 299 299 297 293 292
231 231 235 237 239 239 241 243 244 245 246 248 250 252 254 257 259 260 260 259 258 258 260 263 266 269 272 276 279 282 284 285 287 290 293 296 295 296 295 296 296 296 292 291
232 233 234 236 238 239 241 243 245 246 247 249 251 254 256 258 259 260 261 260 260 261 261 263 266 268 272 276 279 281 283 285 286 287 291 293 293 293 293 293 294 294 291 290
232 233 235 236 237 239 241 243 244 245 247 249 251 253 256 257 259 261 262 262 263 263 266 267 268 269 272 275 278 279 281 283 285 287 290 292 292 292 291 292 293 296 295 292
233 233 235 237 238 239 240 242 244 245 247 250 252 253 255 257 259 260 261 263 264 265 267 268 269 269 271 274 276 277 279 281 284 286 289 289 289 291 292 292 293 293 293 291
234 234 236 237 237 239 241 243 245 245 247 250 252 253 255 258 260 261 262 263 265 266 266 267 268 269 270 272 274 276 277 280 282 286 287 286 287 288 289 289 291 292 290 291
233 234 235 237 238 239 240 242 245 246 248 250 252 253 256 258 261 262 263 264 266 267 267 267 268 269 270 272 274 276 276 278 280 283 283 284 285 287 288 288 289 290 290 290
235 235 236 237 238 240 242 243 245 247 249 251 253 254 256 258 260 262 263 265 266 268 269 270 271 271 271 273 274 276 277 278 279 281 281 284 285 286 287 287 288 289 290 290
235 236 237 238 239 240 243 246 247 249 250 252 254 255 256 259 261 263 263 264 266 267 268 270 271 272 273 275 276 277 278 279 280 281 282 283 284 284 285 287 288 289 290 290
236 236 238 240 241 243 244 246 248 250 251 251 253 254 256 259 261 262 264 265 266 267 268 269 270 271 273 274 276 278 279 280 280 281 281 281 282 283 285 285 287 288 289 289
238 238 240 241 242 242 244 245 246 246 248 251 252 253 255 257 260 262 264 266 266 267 268 269 270 271 271 272 275 277 279 278 278 279 280 280 282 283 284 285 286 287 288 288
238 239 240 241 241 242 243 245 247 248 249 250 251 253 255 257 260 262 264 266 267 267 269 271 271 271 272 272 274 275 277 278 279 280 281 282 282 283 284 285 286 287 288 288
241 242 241 241 242 242 243 245 247 248 249 251 252 253 254 256 259 261 263 265 267 268 270 270 269 270 271 272 273 275 276 277 279 280 281 281 282 283 284 285 286 287 288 288
240 242 242 241 241 243 244 245 247 249 250 251 252 253 255 256 258 261 263 263 265 266 267 268 268 269 270 270 272 274 276 277 278 279 281 283 283 284 284 284 286 287 288 288
242 243 243 243 244 245 246 247 248 249 250 252 253 254 255 257 259 260 261 262 263 265 266 266 268 269 269 270 272 274 276 277 278 280 282 283 285 285 286 286 287 288 289 289
245 245 245 246 246 247 247 247 248 249 250 251 253 254 255 256 258 261 261 262 263 265 265 266 268 269 270 272 274 275 276 277 279 280 282 283 284 285 286 286 287 288 289 290
246 247 247 247 246 246 246 247 248 249 250 250 251 253 254 256 258 260 262 263 265 266 266 266 268 270 272 273 275 276 277 277 279 280 282 283 284 285 286 287 288 289 290 291
251 249 248 247 246 245 245 246 247 248 249 249 251 252 253 256 260 262 263 264 266 268 269 270 272 273 274 274 275 276 277 279 281 282 283 285 286 286 287 288 290 291 292 293
253 250 248 248 248 247 247 248 248 248 249 249 248 250 253 255 257 260 263 265 268 269 270 271 273 275 275 276 277 278 279 280 282 284 285 285 288 290 292 293 294 293 293 293
249 246 245 246 248 247 248 249 249 248 247 246 245 249 252 254 256 259 263 265 269 271 272 273 275 277 278 279 281 282 283 283 284 285 287 289 291 293 295 295 295 294 295 295